Time,TemperatureF,DewpointF,PressureIn,WindDirection,WindDirectionDegrees,WindSpeedMPH,WindSpeedGustMPH,Humidity,HourlyPrecipIn,Conditions,Clouds,dailyrainin,SoftwareType,DateUTC
2013-03-01 00:02:00,11.0,6.0,-100.00,NW,325,1.0,2.0,78,0.00,,,-99.99,,2013-03-01 07:02:00,
2013-03-01 00:11:00,10.0,5.0,-100.00,NNW,345,1.0,2.0,78,0.00,,,-99.99,,2013-03-01 07:11:00,
2013-03-01 00:22:00,10.0,4.0,-100.00,WNW,285,3.0,6.0,78,0.00,,,-99.99,,2013-03-01 07:22:00,
2013-03-01 00:32:00,10.0,4.0,-100.00,ENE,70,0.0,6.0,78,0.00,,,-99.99,,2013-03-01 07:32:00,
2013-03-01 00:42:00,9.0,4.0,-100.00,SW,235,2.0,4.0,79,0.00,,,-99.99,,2013-03-01 07:42:00,
2013-03-01 00:52:00,10.0,5.0,-100.00,WNW,290,3.0,4.0,79,0.00,,,-99.99,,2013-03-01 07:52:00,
2013-03-01 01:02:00,10.0,5.0,-100.00,NW,320,0.0,4.0,79,0.00,,,-99.99,,2013-03-01 08:02:00,
2013-03-01 01:11:00,9.0,4.0,-100.00,West,265,2.0,4.0,80,0.00,,,-99.99,,2013-03-01 08:11:00,
2013-03-01 01:22:00,10.0,5.0,-100.00,West,280,1.0,3.0,80,0.00,,,-99.99,,2013-03-01 08:22:00,
2013-03-01 01:32:00,10.0,5.0,-100.00,WSW,255,3.0,4.0,80,0.00,,,-99.99,,2013-03-01 08:32:00,
2013-03-01 01:42:00,8.0,4.0,-100.00,NNE,30,1.0,4.0,80,0.00,,,-99.99,,2013-03-01 08:42:00,
2013-03-01 01:52:00,9.0,4.0,-100.00,WNW,285,2.0,3.0,81,0.00,,,-99.99,,2013-03-01 08:52:00,
2013-03-01 02:02:00,9.0,5.0,-100.00,North,350,0.0,4.0,81,0.00,,,-99.99,,2013-03-01 09:02:00,
2013-03-01 02:12:00,10.0,5.0,-100.00,NW,320,0.0,2.0,81,0.00,,,-99.99,,2013-03-01 09:12:00,
2013-03-01 02:22:00,9.0,5.0,-100.00,West,275,0.0,3.0,81,0.00,,,-99.99,,2013-03-01 09:22:00,
2013-03-01 02:32:00,10.0,5.0,-100.00,West,275,1.0,2.0,82,0.00,,,-99.99,,2013-03-01 09:32:00,
2013-03-01 02:42:00,9.0,5.0,-100.00,West,280,2.0,4.0,82,0.00,,,-99.99,,2013-03-01 09:42:00,
2013-03-01 02:52:00,10.0,6.0,-100.00,West,265,0.0,4.0,82,0.00,,,-99.99,,2013-03-01 09:52:00,
2013-03-01 03:02:00,10.0,6.0,-100.00,North,0,1.0,2.0,83,0.00,,,-99.99,,2013-03-01 10:02:00,
2013-03-01 03:11:00,10.0,6.0,-100.00,East,95,1.0,4.0,83,0.00,,,-99.99,,2013-03-01 10:11:00,
2013-03-01 03:21:00,11.0,7.0,-100.00,SW,235,2.0,6.0,82,0.00,,,-99.99,,2013-03-01 10:21:00,
2013-03-01 03:32:00,11.0,7.0,-100.00,NW,305,1.0,4.0,82,0.00,,,-99.99,,2013-03-01 10:32:00,
2013-03-01 03:42:00,11.0,7.0,-100.00,SW,215,1.0,3.0,82,0.00,,,-99.99,,2013-03-01 10:42:00,
2013-03-01 03:52:00,13.0,8.0,-100.00,East,85,0.0,6.0,81,0.00,,,-99.99,,2013-03-01 10:52:00,
2013-03-01 04:01:00,12.0,8.0,-100.00,WNW,300,2.0,6.0,81,0.00,,,-99.99,,2013-03-01 11:01:00,
2013-03-01 04:11:00,12.0,8.0,-100.00,West,265,2.0,4.0,81,0.00,,,-99.99,,2013-03-01 11:11:00,
2013-03-01 04:22:00,12.0,7.0,-100.00,SW,235,1.0,3.0,81,0.00,,,-99.99,,2013-03-01 11:22:00,
2013-03-01 04:32:00,12.0,8.0,-100.00,West,280,1.0,3.0,81,0.00,,,-99.99,,2013-03-01 11:32:00,
2013-03-01 04:42:00,13.0,8.0,-100.00,WSW,255,2.0,4.0,81,0.00,,,-99.99,,2013-03-01 11:42:00,
2013-03-01 04:52:00,12.0,7.0,-100.00,West,270,4.0,4.0,81,0.00,,,-99.99,,2013-03-01 11:52:00,
2013-03-01 05:01:00,13.0,8.0,-100.00,SSW,200,2.0,4.0,81,0.00,,,-99.99,,2013-03-01 12:01:00,
2013-03-01 05:11:00,13.0,8.0,-100.00,NW,325,0.0,4.0,81,0.00,,,-99.99,,2013-03-01 12:11:00,
2013-03-01 05:21:00,12.0,8.0,-100.00,WSW,250,0.0,2.0,81,0.00,,,-99.99,,2013-03-01 12:21:00,
2013-03-01 05:32:00,13.0,8.0,-100.00,SW,235,2.0,3.0,82,0.00,,,-99.99,,2013-03-01 12:32:00,
2013-03-01 05:42:00,13.0,8.0,-100.00,WNW,300,0.0,2.0,82,0.00,,,-99.99,,2013-03-01 12:42:00,
2013-03-01 05:52:00,14.0,10.0,-100.00,WNW,285,1.0,4.0,82,0.00,,,-99.99,,2013-03-01 12:52:00,
2013-03-01 06:01:00,14.0,10.0,-100.00,West,265,0.0,2.0,81,0.00,,,-99.99,,2013-03-01 13:01:00,
2013-03-01 06:11:00,15.0,10.0,-100.00,WSW,250,4.0,6.0,80,0.00,,,-99.99,,2013-03-01 13:11:00,
2013-03-01 06:21:00,15.0,10.0,-100.00,West,265,4.0,6.0,80,0.00,,,-99.99,,2013-03-01 13:21:00,
2013-03-01 06:32:00,16.0,11.0,-100.00,West,280,0.0,6.0,79,0.00,,,-99.99,,2013-03-01 13:32:00,
2013-03-01 06:42:00,16.0,11.0,-100.00,SSW,205,0.0,0.0,78,0.00,,,-99.99,,2013-03-01 13:42:00,
2013-03-01 06:51:00,16.0,11.0,-100.00,WSW,255,2.0,3.0,78,0.00,,,-99.99,,2013-03-01 13:51:00,
2013-03-01 07:01:00,16.0,11.0,-100.00,WNW,300,2.0,3.0,78,0.00,,,-99.99,,2013-03-01 14:01:00,
2013-03-01 07:11:00,17.0,11.0,-100.00,NW,310,0.0,4.0,78,0.00,,,-99.99,,2013-03-01 14:11:00,
2013-03-01 07:21:00,17.0,11.0,-100.00,WSW,240,0.0,2.0,78,0.00,,,-99.99,,2013-03-01 14:21:00,
2013-03-01 07:32:00,18.0,12.0,-100.00,WSW,255,2.0,2.0,76,0.00,,,-99.99,,2013-03-01 14:32:00,
2013-03-01 07:42:00,20.0,12.0,-100.00,SW,230,1.0,2.0,72,0.00,,,-99.99,,2013-03-01 14:42:00,
2013-03-01 07:52:00,20.0,13.0,-100.00,SSE,150,1.0,5.0,70,0.00,,,-99.99,,2013-03-01 14:52:00,
2013-03-01 08:01:00,20.0,12.0,-100.00,ESE,115,0.0,3.0,70,0.00,,,-99.99,,2013-03-01 15:01:00,
2013-03-01 08:11:00,22.0,13.0,-100.00,North,350,0.0,2.0,67,0.00,,,-99.99,,2013-03-01 15:11:00,
2013-03-01 08:21:00,23.0,13.0,-100.00,West,265,1.0,4.0,65,0.00,,,-99.99,,2013-03-01 15:21:00,
2013-03-01 08:31:00,25.0,14.0,-100.00,WSW,255,1.0,2.0,62,0.00,,,-99.99,,2013-03-01 15:31:00,
2013-03-01 08:42:00,26.0,14.0,-100.00,WSW,245,0.0,2.0,59,0.00,,,-99.99,,2013-03-01 15:42:00,
2013-03-01 08:52:00,29.0,14.0,-100.00,SSE,155,3.0,6.0,54,0.00,,,-99.99,,2013-03-01 15:52:00,
2013-03-01 09:01:00,29.0,15.0,-100.00,East,90,4.0,6.0,53,0.00,,,-99.99,,2013-03-01 16:01:00,
2013-03-01 09:11:00,29.0,14.0,-100.00,South,170,1.0,6.0,50,0.00,,,-99.99,,2013-03-01 16:11:00,
2013-03-01 09:21:00,29.0,13.0,-100.00,ENE,65,5.0,9.0,50,0.00,,,-99.99,,2013-03-01 16:21:00,
2013-03-01 09:32:00,31.0,14.0,-100.00,East,85,7.0,16.0,49,0.00,,,-99.99,,2013-03-01 16:32:00,
2013-03-01 09:42:00,31.0,14.0,-100.00,East,85,7.0,14.0,49,0.00,,,-99.99,,2013-03-01 16:42:00,
2013-03-01 09:51:00,32.0,15.0,-100.00,East,90,9.0,15.0,49,0.00,,,-99.99,,2013-03-01 16:51:00,
2013-03-01 10:01:00,33.0,16.0,-100.00,East,90,7.0,14.0,48,0.00,,,-99.99,,2013-03-01 17:01:00,
2013-03-01 10:11:00,34.0,17.0,-100.00,East,80,9.0,15.0,47,0.00,,,-99.99,,2013-03-01 17:11:00,
2013-03-01 10:21:00,34.0,15.0,-100.00,East,100,10.0,18.0,46,0.00,,,-99.99,,2013-03-01 17:21:00,
2013-03-01 10:32:00,33.0,15.0,-100.00,East,100,14.0,22.0,47,0.00,,,-99.99,,2013-03-01 17:32:00,
2013-03-01 10:41:00,33.0,15.0,-100.00,ESE,105,11.0,22.0,47,0.00,,,-99.99,,2013-03-01 17:41:00,
2013-03-01 10:52:00,34.0,16.0,-100.00,East,100,14.0,22.0,47,0.00,,,-99.99,,2013-03-01 17:52:00,
2013-03-01 11:01:00,34.0,16.0,-100.00,East,100,16.0,23.0,46,0.00,,,-99.99,,2013-03-01 18:01:00,
2013-03-01 11:12:00,33.0,15.0,-100.00,ESE,110,11.0,29.0,47,0.00,,,-99.99,,2013-03-01 18:12:00,
2013-03-01 11:22:00,34.0,15.0,-100.00,East,100,17.0,29.0,46,0.00,,,-99.99,,2013-03-01 18:22:00,
2013-03-01 11:31:00,35.0,16.0,-100.00,East,95,12.0,29.0,45,0.00,,,-99.99,,2013-03-01 18:31:00,
2013-03-01 11:42:00,37.0,17.0,-100.00,East,85,7.0,17.0,43,0.00,,,-99.99,,2013-03-01 18:42:00,
2013-03-01 11:52:00,37.0,17.0,-100.00,ENE,75,12.0,21.0,44,0.00,,,-99.99,,2013-03-01 18:52:00,
2013-03-01 12:01:00,36.0,16.0,-100.00,ENE,75,11.0,21.0,43,0.00,,,-99.99,,2013-03-01 19:01:00,
2013-03-01 12:11:00,37.0,17.0,-100.00,East,80,10.0,22.0,44,0.00,,,-99.99,,2013-03-01 19:11:00,
2013-03-01 12:21:00,36.0,16.0,-100.00,East,95,14.0,24.0,42,0.00,,,-99.99,,2013-03-01 19:21:00,
2013-03-01 12:32:00,39.0,18.0,-100.00,ESE,110,7.0,22.0,41,0.00,,,-99.99,,2013-03-01 19:32:00,
2013-03-01 12:42:00,39.0,17.0,-100.00,ESE,105,11.0,17.0,40,0.00,,,-99.99,,2013-03-01 19:42:00,
2013-03-01 12:51:00,39.0,18.0,-100.00,ESE,105,8.0,17.0,40,0.00,,,-99.99,,2013-03-01 19:51:00,
2013-03-01 13:01:00,40.0,17.0,-100.00,East,80,7.0,17.0,38,0.00,,,-99.99,,2013-03-01 20:01:00,
2013-03-01 13:11:00,39.0,16.0,-100.00,East,80,12.0,19.0,39,0.00,,,-99.99,,2013-03-01 20:11:00,
2013-03-01 13:21:00,39.0,17.0,-100.00,ESE,110,11.0,19.0,39,0.00,,,-99.99,,2013-03-01 20:21:00,
2013-03-01 13:31:00,40.0,17.0,-100.00,East,80,9.0,17.0,39,0.00,,,-99.99,,2013-03-01 20:31:00,
2013-03-01 13:42:00,40.0,17.0,-100.00,East,90,9.0,17.0,38,0.00,,,-99.99,,2013-03-01 20:42:00,
2013-03-01 13:52:00,38.0,16.0,-100.00,East,100,12.0,19.0,39,0.00,,,-99.99,,2013-03-01 20:52:00,
2013-03-01 14:01:00,39.0,16.0,-100.00,ENE,60,6.0,19.0,39,0.00,,,-99.99,,2013-03-01 21:01:00,
2013-03-01 14:11:00,40.0,16.0,-100.00,East,90,6.0,14.0,38,0.00,,,-99.99,,2013-03-01 21:11:00,
2013-03-01 14:21:00,40.0,16.0,-100.00,ESE,110,4.0,17.0,37,0.00,,,-99.99,,2013-03-01 21:21:00,
2013-03-01 14:32:00,37.0,13.0,-100.00,NE,45,8.0,22.0,37,0.00,,,-99.99,,2013-03-01 21:32:00,
2013-03-01 14:42:00,39.0,15.0,-100.00,NE,55,6.0,17.0,36,0.00,,,-99.99,,2013-03-01 21:42:00,
2013-03-01 14:51:00,39.0,15.0,-100.00,ENE,75,6.0,12.0,36,0.00,,,-99.99,,2013-03-01 21:51:00,
2013-03-01 15:01:00,39.0,14.0,-100.00,ENE,70,5.0,11.0,35,0.00,,,-99.99,,2013-03-01 22:01:00,
2013-03-01 15:11:00,38.0,13.0,-100.00,East,90,4.0,9.0,35,0.00,,,-99.99,,2013-03-01 22:11:00,
2013-03-01 15:21:00,36.0,11.0,-100.00,East,100,4.0,10.0,36,0.00,,,-99.99,,2013-03-01 22:21:00,
2013-03-01 15:31:00,36.0,12.0,-100.00,East,85,4.0,7.0,36,0.00,,,-99.99,,2013-03-01 22:31:00,
2013-03-01 15:42:00,38.0,14.0,-100.00,East,90,6.0,9.0,36,0.00,,,-99.99,,2013-03-01 22:42:00,
2013-03-01 15:51:00,38.0,13.0,-100.00,East,100,4.0,15.0,35,0.00,,,-99.99,,2013-03-01 22:51:00,
2013-03-01 16:01:00,40.0,14.0,-100.00,ESE,120,4.0,7.0,34,0.00,,,-99.99,,2013-03-01 23:01:00,
2013-03-01 16:11:00,39.0,14.0,-100.00,ESE,115,3.0,11.0,35,0.00,,,-99.99,,2013-03-01 23:11:00,
2013-03-01 16:21:00,39.0,14.0,-100.00,East,95,4.0,8.0,34,0.00,,,-99.99,,2013-03-01 23:21:00,
2013-03-01 16:31:00,38.0,12.0,-100.00,East,80,4.0,14.0,34,0.00,,,-99.99,,2013-03-01 23:31:00,
2013-03-01 16:41:00,37.0,12.0,-100.00,East,100,7.0,15.0,35,0.00,,,-99.99,,2013-03-01 23:41:00,
2013-03-01 16:52:00,36.0,12.0,-100.00,East,95,7.0,12.0,36,0.00,,,-99.99,,2013-03-01 23:52:00,
2013-03-01 17:02:00,36.0,11.0,-100.00,East,90,6.0,14.0,36,0.00,,,-99.99,,2013-03-02 00:02:00,
2013-03-01 17:11:00,36.0,11.0,-100.00,NE,35,4.0,9.0,35,0.00,,,-99.99,,2013-03-02 00:11:00,
2013-03-01 17:21:00,35.0,11.0,-100.00,SE,135,0.0,6.0,35,0.00,,,-99.99,,2013-03-02 00:21:00,
2013-03-01 17:32:00,34.0,10.0,-100.00,ESE,110,1.0,4.0,36,0.00,,,-99.99,,2013-03-02 00:32:00,
2013-03-01 17:42:00,33.0,9.0,-100.00,WNW,290,1.0,4.0,36,0.00,,,-99.99,,2013-03-02 00:42:00,
2013-03-01 17:52:00,31.0,10.0,-100.00,West,270,1.0,3.0,40,0.00,,,-99.99,,2013-03-02 00:52:00,
2013-03-01 18:01:00,30.0,10.0,-100.00,WNW,290,2.0,3.0,42,0.00,,,-99.99,,2013-03-02 01:01:00,
2013-03-01 18:11:00,29.0,11.0,-100.00,West,275,1.0,6.0,45,0.00,,,-99.99,,2013-03-02 01:11:00,
2013-03-01 18:21:00,28.0,12.0,-100.00,West,275,4.0,7.0,49,0.00,,,-99.99,,2013-03-02 01:21:00,
2013-03-01 18:31:00,28.0,13.0,-100.00,WSW,255,2.0,7.0,53,0.00,,,-99.99,,2013-03-02 01:31:00,
2013-03-01 18:41:00,27.0,13.0,-100.00,WSW,250,2.0,5.0,56,0.00,,,-99.99,,2013-03-02 01:41:00,
2013-03-01 18:51:00,26.0,14.0,-100.00,West,260,2.0,6.0,58,0.00,,,-99.99,,2013-03-02 01:51:00,
2013-03-01 19:01:00,26.0,13.0,-100.00,West,280,2.0,6.0,57,0.00,,,-99.99,,2013-03-02 02:01:00,
2013-03-01 19:11:00,26.0,13.0,-100.00,WNW,285,3.0,5.0,57,0.00,,,-99.99,,2013-03-02 02:11:00,
2013-03-01 19:21:00,26.0,12.0,-100.00,West,280,2.0,4.0,57,0.00,,,-99.99,,2013-03-02 02:21:00,
2013-03-01 19:32:00,25.0,12.0,-100.00,WSW,255,2.0,4.0,57,0.00,,,-99.99,,2013-03-02 02:32:00,
2013-03-01 19:42:00,25.0,12.0,-100.00,WNW,295,1.0,5.0,57,0.00,,,-99.99,,2013-03-02 02:42:00,
2013-03-01 19:52:00,24.0,11.0,-100.00,WNW,285,2.0,4.0,57,0.00,,,-99.99,,2013-03-02 02:52:00,
2013-03-01 20:01:00,24.0,11.0,-100.00,WNW,295,2.0,4.0,57,0.00,,,-99.99,,2013-03-02 03:01:00,
2013-03-01 20:11:00,23.0,11.0,-100.00,ENE,60,1.0,3.0,59,0.00,,,-99.99,,2013-03-02 03:11:00,
2013-03-01 20:21:00,20.0,9.0,-100.00,SSW,205,1.0,2.0,60,0.00,,,-99.99,,2013-03-02 03:21:00,
2013-03-01 20:32:00,20.0,9.0,-100.00,South,185,0.0,2.0,62,0.00,,,-99.99,,2013-03-02 03:32:00,
2013-03-01 20:42:00,19.0,9.0,-100.00,South,190,0.0,2.0,63,0.00,,,-99.99,,2013-03-02 03:42:00,
2013-03-01 20:52:00,18.0,8.0,-100.00,WNW,300,0.0,3.0,64,0.00,,,-99.99,,2013-03-02 03:52:00,
2013-03-01 21:01:00,18.0,8.0,-100.00,WSW,240,0.0,2.0,65,0.00,,,-99.99,,2013-03-02 04:01:00,
2013-03-01 21:11:00,17.0,8.0,-100.00,NNE,20,0.0,1.0,65,0.00,,,-99.99,,2013-03-02 04:11:00,
2013-03-01 21:21:00,17.0,8.0,-100.00,SW,225,0.0,1.0,66,0.00,,,-99.99,,2013-03-02 04:21:00,
2013-03-01 21:32:00,18.0,9.0,-100.00,WSW,255,0.0,1.0,67,0.00,,,-99.99,,2013-03-02 04:32:00,
2013-03-01 21:42:00,19.0,10.0,-100.00,SW,220,0.0,2.0,68,0.00,,,-99.99,,2013-03-02 04:42:00,
2013-03-01 21:51:00,17.0,9.0,-100.00,West,280,0.0,1.0,68,0.00,,,-99.99,,2013-03-02 04:51:00,
2013-03-01 22:01:00,17.0,8.0,-100.00,West,280,0.0,0.0,68,0.00,,,-99.99,,2013-03-02 05:01:00,
2013-03-01 22:12:00,17.0,8.0,-100.00,WNW,290,0.0,0.0,68,0.00,,,-99.99,,2013-03-02 05:12:00,
2013-03-01 22:22:00,16.0,8.0,-100.00,NW,305,0.0,0.0,68,0.00,,,-99.99,,2013-03-02 05:22:00,
2013-03-01 22:32:00,17.0,8.0,-100.00,WNW,290,0.0,1.0,69,0.00,,,-99.99,,2013-03-02 05:32:00,
2013-03-01 22:42:00,17.0,9.0,-100.00,WNW,285,0.0,0.0,69,0.00,,,-99.99,,2013-03-02 05:42:00,
2013-03-01 22:52:00,18.0,10.0,-100.00,West,265,1.0,2.0,69,0.00,,,-99.99,,2013-03-02 05:52:00,
2013-03-01 23:01:00,18.0,10.0,-100.00,NW,305,0.0,2.0,69,0.00,,,-99.99,,2013-03-02 06:01:00,
2013-03-01 23:11:00,18.0,10.0,-100.00,WNW,300,1.0,2.0,69,0.00,,,-99.99,,2013-03-02 06:11:00,
2013-03-01 23:21:00,20.0,11.0,-100.00,NNW,330,0.0,3.0,68,0.00,,,-99.99,,2013-03-02 06:21:00,
2013-03-01 23:31:00,21.0,11.0,-100.00,West,275,1.0,4.0,65,0.00,,,-99.99,,2013-03-02 06:31:00,
2013-03-01 23:42:00,21.0,11.0,-100.00,WNW,300,3.0,6.0,65,0.00,,,-99.99,,2013-03-02 06:42:00,
2013-03-01 23:51:00,20.0,10.0,-100.00,NW,315,1.0,6.0,65,0.00,,,-99.99,,2013-03-02 06:51:00,